Weather History for Clinton, IA

Change the Weather History Date:

Friday, November 28, 2014

  Actual Average Record
Temperature  
Mean Temperature 22 °F -  
Max Temperature 33 °F 38 °F 64 °F (2006)
Min Temperature 12 °F 23 °F -2 °F (1976)
Degree Days  
Heating Degree Days 42    
Moisture  
Dew Point 18 °F    
Average Humidity 79    
Maximum Humidity 93    
Minimum Humidity 67    
Precipitation  
Precipitation 0.00 in - - ()
Sea Level Pressure  
Sea Level Pressure 30.07 in    
Wind  
Wind Speed 9 mph (SE)    
Max Wind Speed 20 mph    
Max Gust Speed 24 mph    
Visibility 9 miles    
Events      
Averages and records for this station are not official NWS values.
T = Trace of Precipitation, MM = Missing Value Source: NWS Daily Summary

Daily Weather History Graph

Daily Weather History Graph

Search for Another Location

Airport:

Trip Planner

Search our weather history database for the weather conditions in past years. The results will help you decide how hot, cold, wet, or windy it might be!

Date:

Astronomy

Nov. 28, 2014 Rise Set
Actual Time 7:06 AM CST 4:32 PM CST
Civil Twilight 6:35 AM CST 5:03 PM CST
Nautical Twilight 6:00 AM CST 5:37 PM CST
Astronomical Twilight 5:27 AM CST 6:11 PM CST
Moon 11:56 AM CST (11/28) 11:24 PM CST (11/28)
Length of Visible Light 10h 28m
Length of Day
9h 26m
Waxing Crescent, 42% of the Moon is Illuminated
Nov 28
Waxing Crescent
Nov 29
First Quarter
Dec 6
Full
Dec 14
Last Quarter
Dec 21
New

Hourly Weather History & Observations

Time (CST) Temp. Windchill Dew Point Humidity Pressure Visibility Wind Dir Wind Speed Gust Speed Precip Events Conditions
12:15 AM 12.2 °F 4.3 °F 6.8 °F 79% 30.41 in 10.0 mi WSW 4.6 mph - N/A   Overcast
12:35 AM 12.2 °F 6.1 °F 3.2 °F 67% 30.40 in 10.0 mi SW 3.5 mph - N/A   Overcast
12:55 AM 12.2 °F 4.3 °F 6.8 °F 79% 30.38 in 10.0 mi SSW 4.6 mph - N/A   Overcast
1:15 AM 12.2 °F - 5.0 °F 73% 30.37 in 10.0 mi Calm Calm - N/A   Overcast
1:35 AM 14.0 °F 8.2 °F 5.0 °F 67% 30.36 in 10.0 mi SSE 3.5 mph - N/A   Overcast
1:55 AM 14.0 °F 8.2 °F 5.0 °F 67% 30.36 in 10.0 mi SSE 3.5 mph - N/A   Mostly Cloudy
2:15 AM 14.0 °F 6.5 °F 8.6 °F 79% 30.35 in 10.0 mi SSE 4.6 mph - N/A   Overcast
2:35 AM 15.8 °F 7.2 °F 8.6 °F 73% 30.35 in 9.0 mi SE 5.8 mph - N/A   Mostly Cloudy
2:55 AM 15.8 °F 6.1 °F 8.6 °F 73% 30.34 in 10.0 mi SE 6.9 mph - N/A   Mostly Cloudy
3:15 AM 15.8 °F 6.1 °F 8.6 °F 73% 30.34 in 10.0 mi SSE 6.9 mph - N/A   Scattered Clouds
3:35 AM 15.8 °F 4.2 °F 8.6 °F 73% 30.32 in 10.0 mi SE 9.2 mph - N/A   Mostly Cloudy
3:55 AM 15.8 °F 3.4 °F 8.6 °F 73% 30.30 in 10.0 mi ESE 10.4 mph - N/A   Mostly Cloudy
4:15 AM 15.8 °F 2.7 °F 8.6 °F 73% 30.29 in 10.0 mi ESE 11.5 mph - N/A   Overcast
4:35 AM 15.8 °F 2.7 °F 10.4 °F 79% 30.27 in 10.0 mi SE 11.5 mph - N/A   Overcast
4:55 AM 15.8 °F 2.1 °F 8.6 °F 73% 30.27 in 10.0 mi SSE 12.7 mph - N/A   Overcast
5:15 AM 15.8 °F 1.4 °F 8.6 °F 73% 30.25 in 10.0 mi SE 13.8 mph - N/A   Overcast
5:35 AM 15.8 °F 2.7 °F 8.6 °F 73% 30.26 in 10.0 mi SE 11.5 mph - N/A   Overcast
5:55 AM 15.8 °F 2.1 °F 10.4 °F 79% 30.24 in 10.0 mi SE 12.7 mph - N/A   Overcast
6:15 AM 15.8 °F 1.4 °F 8.6 °F 73% 30.22 in 10.0 mi SSE 13.8 mph - N/A   Overcast
6:35 AM 15.8 °F 1.4 °F 10.4 °F 79% 30.22 in 10.0 mi SE 13.8 mph - N/A   Scattered Clouds
6:55 AM 17.6 °F 3.2 °F 10.4 °F 73% 30.21 in 10.0 mi SE 15.0 mph - N/A   Scattered Clouds
7:15 AM 17.6 °F 2.2 °F 10.4 °F 73% 30.20 in 10.0 mi SE 17.3 mph - N/A   Partly Cloudy
7:35 AM 17.6 °F 1.7 °F 10.4 °F 73% 30.17 in 10.0 mi SE 18.4 mph - N/A   Clear
7:55 AM 17.6 °F 2.7 °F 12.2 °F 79% 30.17 in 10.0 mi SE 16.1 mph 21.9 mph N/A   Clear
8:15 AM 19.4 °F 6.0 °F 12.2 °F 74% 30.17 in 10.0 mi SE 13.8 mph - N/A   Clear
8:35 AM 19.4 °F 5.0 °F 12.2 °F 74% 30.15 in 10.0 mi SE 16.1 mph 23.0 mph N/A   Clear
8:55 AM 19.4 °F 4.1 °F 12.2 °F 74% 30.14 in 10.0 mi SE 18.4 mph - N/A   Mostly Cloudy
9:15 AM 21.2 °F 6.8 °F 14.0 °F 74% 30.12 in 10.0 mi SE 17.3 mph 23.0 mph N/A   Overcast
9:35 AM 21.2 °F 6.0 °F 14.0 °F 74% 30.11 in 10.0 mi SSE 19.6 mph 24.2 mph N/A   Mostly Cloudy
9:55 AM 21.2 °F 8.9 °F 15.8 °F 80% 30.11 in 10.0 mi SSE 12.7 mph - N/A   Mostly Cloudy
10:15 AM 23.0 °F 11.1 °F 17.6 °F 80% 30.11 in 10.0 mi SSE 12.7 mph 21.9 mph N/A   Scattered Clouds
10:35 AM 24.8 °F 11.9 °F 17.6 °F 74% 30.10 in 10.0 mi SSE 16.1 mph - N/A   Scattered Clouds
10:55 AM 24.8 °F 13.4 °F 17.6 °F 74% 30.07 in 10.0 mi SSE 12.7 mph - N/A   Partly Cloudy
11:15 AM 26.6 °F 14.3 °F 19.4 °F 74% 30.04 in 10.0 mi SSE 16.1 mph - N/A   Clear
11:35 AM 26.6 °F 15.7 °F 19.4 °F 74% 30.04 in 10.0 mi SSE 12.7 mph - N/A   Scattered Clouds
11:55 AM 28.4 °F 17.5 °F 21.2 °F 74% 30.03 in 10.0 mi South 13.8 mph - N/A   Partly Cloudy
12:15 PM 28.4 °F 18.5 °F 21.2 °F 74% 30.02 in 10.0 mi SSE 11.5 mph - N/A   Clear
12:35 PM 28.4 °F 18.5 °F 21.2 °F 74% 30.00 in 10.0 mi SSE 11.5 mph - N/A   Clear
12:55 PM 30.2 °F 20.2 °F 21.2 °F 69% 29.97 in 10.0 mi SSE 12.7 mph - N/A   Clear
1:15 PM 30.2 °F 20.8 °F 23.0 °F 75% 29.97 in 10.0 mi SSE 11.5 mph - N/A   Clear
1:35 PM 30.2 °F 21.9 °F 23.0 °F 75% 29.97 in 10.0 mi SSE 9.2 mph - N/A   Clear
1:55 PM 30.2 °F 22.6 °F 24.8 °F 80% 29.97 in 10.0 mi ESE 8.1 mph - N/A   Clear
2:15 PM 30.2 °F 21.9 °F 24.8 °F 80% 29.95 in 10.0 mi SSE 9.2 mph - N/A   Clear
2:35 PM 30.2 °F 21.9 °F 24.8 °F 80% 29.95 in 10.0 mi SE 9.2 mph - N/A   Clear
2:55 PM 30.2 °F 22.6 °F 24.8 °F 80% 29.94 in 10.0 mi SSE 8.1 mph - N/A   Clear
3:15 PM 30.2 °F 22.6 °F 24.8 °F 80% 29.95 in 10.0 mi SE 8.1 mph - N/A   Clear
3:35 PM 30.2 °F 24.3 °F 26.6 °F 86% 29.94 in 10.0 mi SE 5.8 mph - N/A   Clear
3:55 PM 30.2 °F 22.6 °F 24.8 °F 80% 29.95 in 10.0 mi SE 8.1 mph - N/A   Clear
4:15 PM 30.2 °F 22.6 °F 26.6 °F 86% 29.93 in 9.0 mi SE 8.1 mph - N/A   Clear
4:35 PM 30.2 °F 21.3 °F 26.6 °F 86% 29.94 in 9.0 mi SE 10.4 mph - N/A   Clear
4:55 PM 32.0 °F 22.1 °F 26.6 °F 80% 29.92 in 9.0 mi SE 13.8 mph - N/A   Clear
5:15 PM 32.0 °F 23.0 °F 26.6 °F 80% 29.91 in 10.0 mi SSE 11.5 mph - N/A   Clear
5:35 PM 32.0 °F 22.5 °F 26.6 °F 80% 29.91 in 10.0 mi SSE 12.7 mph - N/A   Clear
5:55 PM 32.0 °F 22.5 °F 26.6 °F 80% 29.89 in 10.0 mi SSE 12.7 mph - N/A   Clear
6:15 PM 32.0 °F 22.5 °F 26.6 °F 80% 29.89 in 8.0 mi SE 12.7 mph - N/A   Clear
6:35 PM 32.0 °F 22.5 °F 26.6 °F 80% 29.89 in 8.0 mi SSE 12.7 mph - N/A   Clear
6:55 PM 30.2 °F 20.8 °F 26.6 °F 86% 29.88 in 7.0 mi SE 11.5 mph - N/A   Clear
7:15 PM 30.2 °F 22.6 °F 26.6 °F 86% 29.90 in 7.0 mi SE 8.1 mph - N/A   Clear
7:35 PM 30.2 °F 23.4 °F 26.6 °F 86% 29.89 in 7.0 mi SE 6.9 mph - N/A   Clear
7:55 PM 30.2 °F 22.6 °F 26.6 °F 86% 29.87 in 7.0 mi SE 8.1 mph - N/A   Clear
8:15 PM 30.2 °F 22.6 °F 26.6 °F 86% 29.88 in 7.0 mi ESE 8.1 mph - N/A   Clear
8:35 PM 28.4 °F 21.2 °F 24.8 °F 86% 29.87 in 5.0 mi East 6.9 mph - N/A   Clear
8:55 PM 26.6 °F 18.2 °F 24.8 °F 93% 29.87 in 5.0 mi ESE 8.1 mph - N/A   Clear
9:15 PM 28.4 °F 20.4 °F 24.8 °F 86% 29.86 in 5.0 mi ESE 8.1 mph - N/A   Clear
9:35 PM 28.4 °F 21.2 °F 26.6 °F 93% 29.85 in 6.0 mi ESE 6.9 mph - N/A   Clear
9:55 PM 28.4 °F 19.7 °F 24.8 °F 86% 29.84 in 5.0 mi East 9.2 mph - N/A   Clear
10:15 PM 26.6 °F 19.1 °F 24.8 °F 93% 29.85 in 5.0 mi ESE 6.9 mph - N/A   Clear
10:35 PM 32.0 °F 22.1 °F 30.2 °F 93% 29.82 in 8.0 mi SE 13.8 mph - N/A   Clear
10:55 PM 30.2 °F 21.3 °F 28.4 °F 93% 29.81 in 8.0 mi SE 10.4 mph - N/A   Clear
11:15 PM 30.2 °F 20.8 °F 28.4 °F 93% 29.80 in 8.0 mi SE 11.5 mph - N/A   Clear
11:35 PM 33.8 °F 24.3 °F 28.4 °F 81% 29.81 in 10.0 mi SE 13.8 mph - N/A   Clear
11:55 PM 33.8 °F 25.8 °F 28.4 °F 81% 29.80 in 10.0 mi SE 10.4 mph - N/A   Clear